Weather Roundup
Issued by NWS

Home | Current Version | Previous Version | Graphics & Text | Print | Product List | Glossary Off
Versions: 1 2 3 4 5 6 7 8 9 10 11 12 13 14 15 16 17 18 19 20 21 22 23 24 25 26 27 28 29 30 31 32 33 34 35 36 37 38 39 40 41 42 43 44 45 46 47 48 49 50

000
NZUS93 KARX 031159
HRRWXR

CURRENT HOURLY OBSERVATIONS ACROSS
MUCH OF THE UPPER MISSISSIPPI VALLEY
NATIONAL WEATHER SERVICE LA CROSSE WI
600 AM CST TUE MAR 03 2015


...SOUTHEAST MINNESOTA...


CITY           SKY/WX    TMP DP  RH WIND       PRES   REMARKS
ROCHESTER      FRZ RAIN  22  20  92 SE14      29.73F FOG     WCI   9
ROCHESTER/MAYO CLOUDY    22  19  90 SE8       29.74F WCI  12
WINONA         CLOUDY    27  19  74 SE7       29.81F WCI  19
AUSTIN         MIX PCPN  21  21 100 SE8       29.73F WCI  12
ALBERT LEA     CLOUDY    21  21 100 SE9       29.71F FOG     WCI  11
DODGE CENTER   CLOUDY    21  21 100 SE13      29.71F FOG     WCI   9
PRESTON        CLOUDY    21  20  96 SE10      29.75F FOG     WCI  10
OWATONNA       CLOUDY    23  21  93 SE12      29.72F WCI  12
FARIBAULT      CLOUDY    25  19  80 SE7       29.74F WCI  17
$$

...ELSEWHERE IN MINNESOTA...


CITY           SKY/WX    TMP DP  RH WIND       PRES   REMARKS
MINNEAPOLIS    CLOUDY    22  13  68 SE7       29.75F WCI  13
INTNL FALLS    CLOUDY    24  16  71 SW12G20   29.60F WCI  13
DULUTH         LGT SNOW  20  15  81 S13       29.71F VSB 3/4 WCI   7
RED WING       CLOUDY    25  16  68 SE7       29.77F WCI  17
REDWOOD FALLS  CLOUDY    23  18  81 SE9       29.69F WCI  13
MANKATO        CLOUDY    25  18  74 SE13      29.70F WCI  13
FAIRMONT       CLOUDY    25  18  74 SE9       29.67F WCI  15
$$

...SOUTHWEST WISCONSIN...


CITY           SKY/WX    TMP DP  RH WIND       PRES   REMARKS
LA CROSSE      CLOUDY    25  18  74 SE12      29.82F WCI  14
PRAIRIE DU CHI MIX PCPN  25  21  86 E8        29.83F WCI  16
BOSCOBEL       LGT SNOW  25  20  81 VRB3      29.84F
LONE ROCK      NOT AVBL
PLATTEVILLE    CLOUDY    24  21  91 E14       29.82F WCI  11
FORT MC COY    CLOUDY    24  16  72 SE7       29.85F WCI  16
CAMP DOUGLAS   MIX PCPN  23  19  86 E12       29.83F WCI  12
VIROQUA        CLOUDY    22  19  89 SE10      29.79F WCI  11
WIS DELLS      NOT AVBL
$$

...ELSEWHERE IN WISCONSIN...


CITY           SKY/WX    TMP DP  RH WIND       PRES   REMARKS
MILWAUKEE      LGT SNOW  25  21  85 SE14      29.95F VSB 1   WCI  13
MADISON        LGT SNOW  23  19  85 SE13      29.88F FOG     WCI  11
GREEN BAY      CLOUDY    25  18  74 S9        29.93F WCI  15
EAU CLAIRE     NOT AVBL
BLACK RVR FLS  CLOUDY    24  15  67 SE6       29.84F WCI  17
MEDFORD        CLOUDY    19  14  79 SE8       29.81F WCI   9
WAUSAU         CLOUDY    20  15  81 SE8       29.82F WCI  10
WIS RAPIDS     CLOUDY    22  13  68 S9        29.85F WCI  12
MARSHFIELD     CLOUDY    22  14  71 SE9       29.81F WCI  12
RICE LAKE      CLOUDY    21  16  81 SE10      29.81F WCI  10
$$

...NORTHEAST IOWA...


CITY           SKY/WX    TMP DP  RH WIND       PRES   REMARKS
DECORAH        MIX PCPN  23  21  93 SE8G14    29.77F WCI  14
MASON CITY     CLOUDY    24  20  84 SE13      29.71F WCI  12
CHARLES CITY   CLOUDY    23  25 100 SE14      29.75F FOG     WCI  11
OELWEIN        LGT SNOW  23  23 100 SE17      29.78F WCI   9
$$

...ELSEWHERE IN IOWA...


CITY           SKY/WX    TMP DP  RH WIND       PRES   REMARKS
DES MOINES     FRZ DRZL  31  26  82 S12       29.71F WCI  22
IOWA CITY      FRZ RAIN  30  27  88 S14       29.80F FOG     WCI  19
FORT DODGE     CLOUDY    28  21  74 S7        29.69F WCI  21
$$

...NORTHERN ILLINOIS...


CITY           SKY/WX    TMP DP  RH WIND       PRES   REMARKS
CHICAGO-OHARE  LGT SNOW  24  22  91 SE13      29.96F FOG     WCI  12
CHICAGO-MIDWAY LGT SNOW  27  23  85 SE13      29.98F FOG     WCI  16
MOLINE         FRZ RAIN  28  25  88 SE14G24   29.82F FOG     WCI  17
ROCKFORD       LGTSLEET  25  21  85 SE15      29.90F FOG     WCI  13
PEORIA         FRZ RAIN  30  25  81 S14       29.91F WCI  19
$$

NOTE: "FAIR" INDICATES FEW OR NO CLOUDS BELOW 12,000 FEET WITH NO
SIGNIFICANT WEATHER AND/OR OBSTRUCTIONS TO VISIBILITY. WIND
SPEEDS ARE IN MILES-PER-HOUR.



USA.gov is the U.S. government's official web portal to all federal, state and local government web resources and services.